This demonstration page uses our WeatherBlox Daily Observations layout. Learn more.

Left ArrowRight Arrow

Hourly Observations for September 18, 2020

Temp ( °F °C ) Dew Point ( °F °C ) Humidity (%) Winds ( mph kmh ) Pressure ( in mb ) Visibility ( mi km ) Precip ( " mm )
12:53 am 00:53 Mostly Clear 70 21.1 55 12.8 59 59 E 7 11 30.04 1017 10 16 0.00 0.00
1:53 am 01:53 Partly Cloudy 68 20 57 13.9 68 68 E 6 9 30.04 1017 10 16 0.00 0.00
2:53 am 02:53 Mostly Cloudy 67 19.4 58 14.4 73 73 E 5 7 30.04 1017 10 16 0.00 0.00
3:53 am 03:53 Partly Cloudy 66 18.9 58 14.4 75 75 ENE 5 7 30.04 1017 10 16 0.00 0.00
4:53 am 04:53 Clear 64 17.8 58 14.4 81 81 N 5 7 30.05 1018 10 16 0.00 0.00
5:53 am 05:53 Mostly Cloudy 63 17.2 57 13.9 81 81 N 6 9 30.06 1018 10 16 0.00 0.00
6:53 am 06:53 Cloudy 63 17.2 57 13.9 81 81 N 6 9 30.06 1018 10 16 0.00 0.00
7:53 am 07:53 Mostly Sunny 62 16.7 57 13.9 84 84 N 6 9 30.10 1019 10 16 0.00 0.00
8:53 am 08:53 Sunny 67 19.4 57 13.9 71 71 Calm 30.12 1020 10 16 0.00 0.00
9:53 am 09:53 Sunny 72 22.2 57 13.9 59 59 ESE 10 17 30.13 1020 10 16 0.00 0.00
10:53 am 10:53 Sunny 76 24.4 56 13.3 50 50 E 9 15 30.13 1020 10 16 0.00 0.00
11:53 am 11:53 Mostly Sunny 80 26.7 52 11.1 38 38 NE 12 19 30.12 1020 10 16 0.00 0.00
12:53 pm 12:53 Partly Cloudy 80 26.7 52 11.1 38 38 VRB 7 11 30.11 1020 10 16 0.00 0.00
1:53 pm 13:53 Mostly Sunny 82 27.8 51 10.6 34 34 E 9 15 30.09 1019 10 16 0.00 0.00
2:53 pm 14:53 Partly Cloudy 83 28.3 50 10 32 32 E 9 15 30.06 1018 10 16 0.00 0.00
3:53 pm 15:53 Mostly Sunny 84 28.9 50 10 31 31 E 13 20 30.04 1017 10 16 0.00 0.00
4:53 pm 16:53 Sunny 84 28.9 50 10 31 31 E 12 19 30.02 1017 10 16 0.00 0.00
5:53 pm 17:53 Sunny 84 28.9 50 10 31 31 VRB 6 9 30.01 1016 10 16 0.00 0.00
6:53 pm 18:53 Sunny 83 28.3 49 9.4 31 31 E 10 17 30.01 1016 10 16 0.00 0.00
7:53 pm 19:53 Sunny 79 26.1 51 10.6 38 38 E 7 11 30.03 1017 10 16 0.00 0.00
8:53 pm 20:53 Clear 75 23.9 52 11.1 45 45 E 7 11 30.05 1018 10 16 0.00 0.00
9:53 pm 21:53 Clear 72 22.2 52 11.1 50 50 E 7 11 30.07 1018 10 16 0.00 0.00
10:53 pm 22:53 Clear 70 21.1 53 11.7 55 55 E 6 9 30.08 1019 10 16 0.00 0.00
11:53 pm 23:53 Clear 68 20 53 11.7 59 59 E 6 9 30.09 1019 10 16 0.00 0.00

Powered by AerisWeather